Change the Weather History Date:

Wednesday, June 4, 2014

  Actual Average Record
Temperature  
Mean Temperature 78 °F 69 °F  
Max Temperature 92 °F 84 °F 99 °F (2006)
Min Temperature 64 °F 55 °F 42 °F (1970)
Degree Days  
Heating Degree Days 0 1  
Month to date heating degree days 0 4  
Since 1 June heating degree days 0 4  
Since 1 July heating degree days 4593 4721  
Cooling Degree Days 13 5  
Month to date cooling degree days 56 20  
Year to date cooling degree days 176 92  
Since 1 June cooling degree days 56 20  
Growing Degree Days 28 (Base 50)    
Moisture  
Dew Point 57 °F    
Average Humidity 53    
Maximum Humidity 78    
Minimum Humidity 28    
Precipitation  
Precipitation 0.00 in 0.08 in 1.21 in (1985)
Month to date precipitation 0.00 0.31  
Year to date precipitation 1.84 5.72  
Snow  
Snow 0.00 in 0.00 in 0.00 in ()
Month to date snowfall 0.0 0.0  
Since 1 June snowfall 0.0 0.0  
Since 1 July snowfall 17.4 18.9  
Snow Depth 0.00 in    
Sea Level Pressure  
Sea Level Pressure 29.69 in    
Wind  
Wind Speed 13 mph (East)    
Max Wind Speed 33 mph    
Max Gust Speed 40 mph    
Visibility 10 miles    
Events      
T = Trace of Precipitation, MM = Missing Value Source: NWS Daily Summary

Daily Weather History Graph

Daily Weather History Graph

Search for Another Location

Airport or City:

Trip Planner

Search our weather history database for the weather conditions in past years. The results will help you decide how hot, cold, wet, or windy it might be!

Date:

Astronomy

Jun. 04, 2014 Rise Set
Actual Time 6:33 AM CDT 9:03 PM CDT
Civil Twilight 6:04 AM CDT 9:33 PM CDT
Nautical Twilight 5:27 AM CDT 10:10 PM CDT
Astronomical Twilight 4:46 AM CDT 10:51 PM CDT
Moon 12:46 PM CDT (6/4) 1:11 AM CDT (6/4)
Length of Visible Light 15h 29m
Length of Day
14h 29m
Waxing Crescent, 39% of the Moon is Illuminated
Jun 4
Waxing Crescent
Jun 5
First Quarter
Jun 12
Full
Jun 19
Last Quarter
Jun 27
New

Hourly Weather History & Observations

Time (CDT) Temp. Heat Index Dew Point Humidity Pressure Visibility Wind Dir Wind Speed Gust Speed Precip Events Conditions
12:53 AM 82.4 °F 81.4 °F 53.6 °F 37% 29.84 in 10.0 mi South 18.4 mph - N/A   Clear
1:53 AM 78.8 °F - 55.4 °F 44% 29.86 in 10.0 mi South 26.5 mph 38.0 mph N/A   Clear
2:53 AM 75.0 °F - 55.9 °F 51% 29.65 in 10.0 mi SSW 20.7 mph - N/A   Clear
3:53 AM 72.0 °F - 57.0 °F 59% 29.66 in 10.0 mi SSW 11.5 mph - N/A   Clear
4:53 AM 68.0 °F - 57.0 °F 68% 29.65 in 10.0 mi South 10.4 mph - N/A   Clear
5:53 AM 66.9 °F - 57.0 °F 70% 29.64 in 10.0 mi South 8.1 mph - N/A   Clear
6:53 AM 64.0 °F - 57.0 °F 78% 29.65 in 10.0 mi SSW 9.2 mph - N/A   Clear
7:53 AM 69.1 °F - 57.9 °F 68% 29.68 in 9.0 mi WNW 8.1 mph - N/A   Clear
8:53 AM 73.0 °F - 55.0 °F 53% 29.68 in 10.0 mi WNW 9.2 mph - N/A   Clear
9:53 AM 75.0 °F - 55.9 °F 51% 29.70 in 10.0 mi North 16.1 mph - N/A   Clear
10:53 AM 78.1 °F - 57.9 °F 50% 29.72 in 10.0 mi NNE 15.0 mph - N/A   Clear
11:53 AM 84.0 °F 83.5 °F 57.9 °F 41% 29.70 in 10.0 mi NE 16.1 mph - N/A   Clear
12:53 PM 84.9 °F 83.9 °F 57.0 °F 38% 29.70 in 10.0 mi NE 11.5 mph - N/A   Clear
1:53 PM 87.1 °F 85.9 °F 57.0 °F 36% 29.71 in 10.0 mi ENE 13.8 mph 21.9 mph N/A   Clear
2:53 PM 88.0 °F 86.9 °F 57.9 °F 36% 29.70 in 10.0 mi ENE 16.1 mph 21.9 mph N/A   Clear
3:53 PM 89.1 °F 87.7 °F 57.0 °F 34% 29.69 in 10.0 mi ENE 13.8 mph 19.6 mph N/A   Clear
4:53 PM 91.0 °F 89.2 °F 55.9 °F 30% 29.67 in 10.0 mi East 9.2 mph - N/A   Clear
5:53 PM 91.9 °F 89.5 °F 54.0 °F 27% 29.65 in 10.0 mi East 11.5 mph - N/A   Clear
6:53 PM 91.9 °F 90.0 °F 55.0 °F 29% 29.63 in 10.0 mi East 9.2 mph - N/A   Clear
7:53 PM 89.1 °F 88.0 °F 57.9 °F 35% 29.62 in 10.0 mi East 13.8 mph - N/A   Clear
8:53 PM 82.9 °F 83.2 °F 60.1 °F 46% 29.63 in 10.0 mi East 15.0 mph - N/A   Clear
9:53 PM 80.6 °F 81.5 °F 60.8 °F 51% 29.82 in 10.0 mi East 15.0 mph - N/A   Clear
10:53 PM 75.9 °F - 60.1 °F 58% 29.64 in 10.0 mi ENE 5.8 mph - N/A   Clear
11:53 PM 73.0 °F - 60.1 °F 64% 29.61 in 10.0 mi NE 9.2 mph - N/A   Clear